Regional Weather Roundup
Issued by NWS Lake Charles, LA

Home | Current Version | Previous Version | Text Only | Print | Product List | Glossary On
Versions: 1 2 3 4 5 6 7 8 9 10 11 12 13 14 15 16 17 18 19 20 21 22 23 24 25 26 27 28 29 30 31 32 33 34 35 36 37 38 39 40 41 42 43 44 45 46 47 48 49 50
469
ASUS44 KLCH 260410
RWRLCH
REGIONAL WEATHER ROUNDUP
NATIONAL WEATHER SERVICE LAKE CHARLES LA
1100 PM CDT SAT MAR 25 2017

Note: "fair" indicates few or no clouds below 12,000 feet with no
significant weather and/or obstructions to visibility.


ACROSS SOUTHEAST TEXAS

CITY           SKY/WX    TMP DP  RH WIND       PRES   REMARKS
BEAUMONT       CLOUDY    68  66  93 S5        29.96R FOG
BEAUMONT CITY  FAIR     N/A N/A N/A CALM      29.96S FOG
ORANGE         CLOUDY    70  69  96 SW5       29.98S FOG
JASPER         CLEAR     58  56  92 CALM      29.98S
$$

ACROSS CENTRAL LOUISIANA

CITY           SKY/WX    TMP DP  RH WIND       PRES   REMARKS
LEESVILLE      CLEAR     59  55  87 CALM      29.96R
FULLERTON      FAIR      58  54  86 CALM      29.94R
ALEXANDRIA INT CLEAR     60  56  86 CALM      29.95R
ESLER FIELD    CLEAR     59  59 100 CALM      29.96S
DERIDDER       FAIR      64  62  95 CALM      29.98S
OAKDALE        CLOUDY    66  65  96 CALM      29.97S
OPELOUSAS      CLOUDY    68  63  83 MISG      29.98S
$$

ACROSS SOUTHWEST AND SOUTH CENTRAL LOUISIANA

CITY           SKY/WX    TMP DP  RH WIND       PRES   REMARKS
SULPHUR        CLOUDY    72  70  95 SW9       29.97S
LAKE CHARLES   CLOUDY    71  68  90 SW7       29.96S
CHENNAULT INT  NOT AVBL
CAMERON PHI    CLEAR     72  70  94 SW12      29.96S
DEQUINCY       CLOUDY    68  67  97 S5        29.96S
JENNINGS       CLOUDY    68  66  91 S5        29.98R
LAFAYETTE      PTCLDY    69  65  86 S5        29.98S
NEW IBERIA     CLEAR     65  61  87 S6        29.99S
ABBEVILLE      FAIR      64  64 100 S3        29.98F
PATTERSON      CLEAR     64  63  96 S6        30.00S
SALT POINT       N/A     68  65  90 VRB3      29.98F
$$

SELECTED SITES ACROSS THE REGION

CITY           SKY/WX    TMP DP  RH WIND       PRES   REMARKS
HOUSTON BUSH   PTCLDY    63  54  72 CALM      29.95R
HOUSTON HOBBY  CLEAR     68  66  93 S7        29.95R
GALVESTON      CLEAR     73  71  93 S7        29.96S
COLLEGE STAT   CLEAR     62  52  69 E3        29.94S
CONROE         PTCLDY    54  53  97 CALM      29.96R
HUNTSVILLE     PTCLDY    58  52  80 CALM      29.95S
LUFKIN         CLEAR     55  51  86 NW3       29.96R
SHREVEPORT     CLEAR     58  50  75 CALM      29.94R
MONROE         CLEAR     58  54  86 CALM      29.95S
NATCHEZ MS     PTCLDY    66  55  68 SE8       29.96S
BATON ROUGE    CLEAR     65  61  87 S7        29.99R
N.O. INTL ARPT CLEAR     67  64  90 S9        30.01S
SLIDELL        CLEAR     62  60  93 CALM      30.00F
$$

MARINE REPORTS

STATION/POSITION TIME  SKY/WX   TEMP    WIND        PRES    VSBY
                                AIR SEA DIR/SP/G
                 (UTC)          (F)     (DEG/KT/KT) (MB)    (MI)
BUOY 30 S HIGH I 0250            72 71  210/ 12/ 14 1014.2
WVE H/P(F/S)=  4/ 8

SEA RIM ST PARK  0400            71     210/  8/ 10 1015.1R
PORT ARTHUR      0348               72  210/  6/ 10 1014.6R
SABINE PASS N    0348            70 73  200/  6/  8 1015.9R
TEXAS POINT      NOT AVBL
CALCASIEU PASS   0348            71 72  210/ 13/ 14   N/A
LK CHARLES BEACH 0348            71 71              1015.1R
MARSH ISLAND     0300            73                   N/A
FRESH WATER LOCK 0348            71 73  170/ 12/ 14 1015.1F
AMERADA PASS     0348            69 60  170/  4/  6 1015.6F
$$




USA.gov is the U.S. government's official web portal to all federal, state and local government web resources and services.